Home > Weather > Babylon > Past weeks

Flag for USA Weather for the Past 2 Weeks in Babylon, New York, USA

Now
48 °F

Overcast.


Feels Like: 44 °F
Forecast: 44 / 55 °F
Wind: 8 mph from East

Location: Republic Airport

Current Time: Apr 29, 2016 at 8:32:17 AM

Latest Report: Apr 29, 2016 at 7:53 AM


Visibility: 10 mi

Pressure: 30.11 "Hg

Humidity: 63%

Dew Point: 36 °F

Location of BabylonLocation

Historic Weather in Babylon — Graph

°F

Babylon Temperature Yesterday

Maximum temperature yesterday: 57 °F (at 11:53 AM)
Minimum temperature yesterday: 45 °F (at 5:53 AM)
Average temperature yesterday: 50 °F

High & Low Weather Summary for the Past Weeks

 TemperatureHumidityPressure
High75 °F (Apr 18, 1:53 PM)93% (Apr 23, 4:00 AM)30.47 "Hg (Apr 23, 4:00 AM)
Low37 °F (Apr 14, 6:53 AM)16% (Apr 16, 4:53 PM)29.66 "Hg (Apr 26, 2:53 PM)
Average54 °F57%30.09 "Hg
* Reported Apr 14 6:53 AM — Apr 29 6:53 AM, Babylon, Weather by CustomWeather, © 2016

Note: Actual official high and low records may vary slightly from our data, if they occured in-between our weather recording intervals... More about our weather records

Advertising

Babylon Weather History for the Previous 24 Hours

Scroll right to see more
 ConditionsComfort  
Time TempWeatherWind HumidityBarometerVisibility
6:53 AM
Fri, Apr 29
48 °FMostly cloudy.10 mph66%30.09 "Hg10 mi
5:53 AM47 °FOvercast.9 mph66%30.08 "Hg10 mi
4:53 AM48 °FOvercast.8 mph63%30.07 "Hg10 mi
3:53 AM48 °FOvercast.5 mph66%30.06 "Hg10 mi
2:53 AM48 °FOvercast.6 mph68%30.06 "Hg10 mi
1:53 AM49 °FOvercast.5 mph66%30.05 "Hg10 mi
12:53 AM49 °FOvercast.3 mph61%30.07 "Hg10 mi
11:53 PM
Thu, Apr 28
49 °FOvercast.3 mph59%30.06 "Hg10 mi
10:53 PM49 °FOvercast.5 mph50%30.06 "Hg10 mi
9:53 PM49 °FOvercast.5 mph52%30.07 "Hg10 mi
8:53 PM49 °FOvercast.5 mph50%30.06 "Hg10 mi
7:53 PM49 °FOvercast.7 mph52%30.06 "Hg10 mi
6:53 PM50 °FOvercast.6 mph48%30.05 "Hg10 mi
5:53 PM51 °FSunny.9 mph46%30.04 "Hg10 mi
4:53 PM51 °FSunny.10 mph46%30.03 "Hg10 mi
3:53 PM52 °FSunny.13 mph49%30.04 "Hg10 mi
2:53 PM52 °FSunny.12 mph55%30.05 "Hg10 mi
1:53 PM52 °FSunny.13 mph53%30.05 "Hg10 mi
12:53 PM53 °FSunny.10 mph56%30.06 "Hg10 mi
11:53 AM57 °FSunny.6 mph28%30.07 "Hg10 mi
10:53 AM54 °FSunny.9 mph31%30.05 "Hg10 mi
9:53 AM52 °FSunny.9 mph35%30.06 "Hg10 mi
8:53 AM51 °FSunny.8 mph36%30.05 "Hg10 mi
Weather by CustomWeather, © 2016

See weather overviewHow to use our weather pages